CW5622 Weather Reports


Display with metric or nautical units.
time (UTC)temp
F
wind
direction
speed
MPH
gust
MPH
rain 1hr
in
rain 24hr
in
rain mn
in
humidity
%
barometer
mb
20180124033810 34 309 0.0 0.0 0.00 0.00 0.00 100 1001.7
20180124032810 34 309 0.0 0.0 0.00 0.00 0.00 100 1001.6
20180124031810 35 309 0.0 0.0 0.00 0.00 0.00 100 1001.6
20180124030810 35 309 0.0 0.0 0.00 0.00 0.00 100 1001.6
20180124025810 35 9 0.0 0.0 0.00 0.00 0.00 100 1001.6
20180124024810 36 9 0.0 0.0 0.00 0.00 0.00 100 1001.6
20180124023812 36 9 0.0 0.0 0.00 0.00 0.00 100 1001.6
20180124022810 36 9 0.0 0.0 0.00 0.00 0.00 100 1001.6
20180124021810 35 10 0.0 0.0 0.00 0.00 0.00 100 1001.6
20180124020810 35 10 0.0 0.0 0.00 0.00 0.00 100 1001.3
20180124015810 35 10 0.0 0.0 0.00 0.00 0.00 100 1001.0
20180124014811 36 10 0.0 0.0 0.00 0.00 0.00 100 1001.0
20180124013812 36 10 0.0 0.0 0.00 0.00 0.00 100 1001.0
20180124012811 36 10 0.0 0.0 0.00 0.00 0.00 100 1000.7
20180124011811 36 10 0.0 0.0 0.00 0.00 0.00 100 1000.7
20180124010810 36 10 1.0 0.0 0.00 0.00 0.00 100 1000.1
20180124005811 36 10 0.0 0.0 0.00 0.00 0.00 100 1000.5
20180124004810 36 9 0.0 0.0 0.00 0.00 0.00 100 1000.5
20180124003811 36 242 0.0 0.0 0.00 0.00 0.00 100 999.6
20180124001812 36 242 0.0 0.0 0.00 0.00 0.00 100 1000.0
20180124000811 36 289 0.0 0.0 0.00 0.00 0.00 100 1000.2
20180123235811 36 289 0.0 0.0 0.00 0.00 0.00 100 1000.1
20180123234812 36 289 0.0 0.0 0.00 0.00 0.00 100 1000.1
20180123233811 36 289 0.0 0.0 0.00 0.00 0.00 100 1000.5
20180123232811 36 290 0.0 0.0 0.00 0.00 0.00 100 1000.1
20180123231811 36 345 0.0 0.0 0.00 0.00 0.00 100 1000.1
20180123230810 36 346 0.0 0.0 0.00 0.00 0.00 100 1000.2
20180123225811 36 346 0.0 0.0 0.00 0.00 0.00 100 999.5
20180123224810 37 345 1.0 0.0 0.00 0.00 0.00 100 999.5
20180123223812 37 345 0.0 0.0 0.00 0.00 0.00 100 999.0
20180123222811 37 346 0.0 0.0 0.00 0.00 0.00 100 998.6
20180123221810 37 345 0.0 0.0 0.00 0.00 0.00 100 998.6
20180123220811 37 345 0.0 0.0 0.00 0.00 0.00 100 998.5
20180123215811 37 345 1.0 0.0 0.00 0.00 0.00 100 998.5
20180123214813 38 346 0.0 0.0 0.00 0.00 0.00 100 998.5
20180123213812 38 346 0.0 0.0 0.00 0.00 0.00 100 997.9
20180123212811 38 346 0.0 0.0 0.00 0.00 0.00 100 998.2
20180123211811 38 345 0.0 0.0 0.00 0.00 0.00 100 998.2
20180123210811 38 346 0.0 0.0 0.00 0.00 0.00 100 998.1
20180123205812 38 355 1.0 0.0 0.00 0.00 0.00 100 997.8
20180123204811 38 355 0.0 0.0 0.00 0.00 0.00 100 997.8
20180123203811 38 355 0.0 0.0 0.00 0.00 0.00 100 997.5
20180123202811 38 355 0.0 0.0 0.00 0.00 0.00 100 997.9
20180123201812 38 350 0.0 0.0 0.00 0.00 0.00 100 997.9
20180123200811 38 350 0.0 0.0 0.00 0.00 0.00 100 998.3
20180123195812 38 348 0.0 0.0 0.00 0.00 0.00 100 998.3
20180123194811 37 348 0.0 0.0 0.00 0.00 0.00 100 998.3
20180123193812 37 348 0.0 0.0 0.00 0.00 0.00 100 998.3
20180123192811 36 348 0.0 0.0 0.00 0.00 0.00 100 999.0
20180123191811 36 336 3.0 0.0 0.00 0.00 0.00 100 999.0
20180123190812 37 303 5.0 0.0 0.00 0.00 0.00 100 998.3
20180123185813 37 348 0.0 0.0 0.00 0.00 0.00 100 998.4
20180123184812 37 348 0.0 0.0 0.00 0.00 0.00 100 998.4
20180123183811 37 348 0.0 0.0 0.00 0.00 0.00 100 998.6
20180123182812 36 348 0.0 0.0 0.00 0.00 0.00 100 999.3
20180123181811 36 348 0.0 0.0 0.00 0.00 0.00 100 999.3
20180123180813 36 348 2.0 0.0 0.00 0.00 0.00 100 999.5
20180123175811 36 348 0.0 0.0 0.00 0.00 0.00 100 1000.1
20180123174811 36 348 0.0 0.0 0.00 0.00 0.00 100 1000.1
20180123173812 36 348 2.0 0.0 0.00 0.00 0.00 100 1000.2
20180123172811 36 348 0.0 0.0 0.00 0.00 0.00 100 1001.3
20180123171811 36 348 0.0 0.0 0.00 0.00 0.00 100 1001.3
20180123170812 36 344 0.0 0.0 0.00 0.00 0.00 100 1002.1
20180123165811 36 344 0.0 0.0 0.00 0.00 0.00 100 1002.6
20180123164812 36 344 0.0 0.0 0.00 0.00 0.00 100 1002.6
20180123163813 36 344 0.0 0.0 0.00 0.00 0.00 100 1003.2
20180123162811 36 344 0.0 0.0 0.00 0.00 0.00 100 1004.2
20180123161811 36 344 0.0 0.0 0.00 0.00 0.00 100 1004.2
20180123160812 36 344 0.0 0.0 0.00 0.00 0.00 100 1004.7
20180123155811 36 344 0.0 0.0 0.00 0.00 0.00 100 1005.0
20180123154811 36 344 0.0 0.0 0.00 0.00 0.00 100 1005.0
20180123153813 35 344 0.0 0.0 0.00 0.00 0.00 100 1005.3
20180123152811 35 344 1.0 0.0 0.00 0.00 0.00 100 1006.3
20180123151811 35 343 0.0 0.0 0.00 0.00 0.00 100 1006.3
20180123150812 35 343 0.0 0.0 0.00 0.00 0.00 100 1006.0
20180123145811 35 343 0.0 0.0 0.00 0.00 0.00 100 1006.5
20180123144811 35 344 0.0 0.0 0.00 0.00 0.00 100 1006.5
20180123143811 35 344 0.0 0.0 0.00 0.00 0.00 100 1006.8
20180123142811 34 343 2.0 0.0 0.00 0.00 0.00 100 1006.9
20180123141811 34 347 0.0 0.0 0.00 0.00 0.00 100 1006.9
20180123140811 34 346 3.0 0.0 0.00 0.00 0.00 100 1007.4
20180123135814 34 355 0.0 0.0 0.00 0.00 0.00 100 1007.8
20180123134811 34 347 0.0 0.0 0.00 0.00 0.00 100 1007.8
20180123133811 34 346 2.0 0.0 0.00 0.00 0.00 100 1008.4
20180123132812 34 348 3.0 0.0 0.00 0.00 0.00 100 1008.6
20180123131811 34 5 0.0 0.0 0.00 0.00 0.00 100 1008.6
20180123130811 34 5 0.0 0.0 0.00 0.00 0.00 100 1008.9
20180123124812 34 5 0.0 0.0 0.00 0.00 0.00 100 1009.2
20180123123811 34 5 0.0 0.0 0.00 0.00 0.00 100 1009.7
20180123122813 34 5 0.0 0.0 0.00 0.00 0.00 100 1010.2
20180123121811 34 355 0.0 0.0 0.00 0.00 0.00 100 1010.2
20180123120811 34 355 0.0 0.0 0.00 0.00 0.00 100 1010.8
20180123115811 33 350 0.0 0.0 0.00 0.00 0.00 100 1011.1
20180123114813 33 15 2.0 0.0 0.00 0.00 0.00 100 1011.1
20180123113811 33 14 0.0 0.0 0.00 0.00 0.00 100 1011.5
20180123112811 33 12 0.0 0.0 0.00 0.00 0.00 100 1011.6
20180123111812 33 12 0.0 0.0 0.00 0.00 0.00 100 1011.6
20180123110812 33 12 0.0 0.0 0.00 0.00 0.00 100 1012.3
20180123105812 33 12 0.0 0.0 0.00 0.00 0.00 100 1012.3
20180123104812 33 12 0.0 0.0 0.00 0.00 0.00 100 1012.3
20180123103812 33 12 0.0 0.0 0.00 0.00 0.00 100 1012.0
20180123102812 33 12 0.0 0.0 0.00 0.00 0.00 100 1012.6
20180123101812 33 19 0.0 0.0 0.00 0.00 0.00 100 1012.6
20180123100812 33 19 0.0 0.0 0.00 0.00 0.00 100 1013.1
20180123095812 33 18 0.0 0.0 0.00 0.00 0.00 100 1013.5
20180123094812 33 19 0.0 0.0 0.00 0.00 0.00 100 1013.5
20180123093812 33 19 2.0 0.0 0.00 0.00 0.00 100 1013.7
20180123092813 33 20 0.0 0.0 0.00 0.00 0.00 100 1013.7
20180123091813 33 30 1.0 0.0 0.00 0.00 0.00 100 1013.7
20180123090812 33 31 0.0 0.0 0.00 0.00 0.00 100 1013.7
20180123085812 33 49 2.0 0.0 0.00 0.00 0.00 100 1014.2
20180123084813 33 39 1.0 0.0 0.00 0.00 0.00 100 1014.2
20180123083812 33 42 0.0 0.0 0.00 0.00 0.00 100 1015.1
20180123082812 33 40 0.0 0.0 0.00 0.00 0.00 100 1015.3
20180123081813 33 5 0.0 0.0 0.00 0.00 0.00 100 1015.3
20180123080814 33 5 2.0 0.0 0.00 0.00 0.00 100 1015.7
20180123075812 33 50 0.0 0.0 0.00 0.00 0.00 100 1015.8
20180123074813 33 49 0.0 0.0 0.00 0.00 0.00 100 1015.8
20180123073812 33 49 1.0 0.0 0.00 0.00 0.00 100 1016.1
20180123072812 33 48 0.0 0.0 0.00 0.00 0.00 100 1016.2
20180123071812 33 48 0.0 0.0 0.00 0.00 0.00 100 1016.2
20180123070813 33 46 0.0 0.0 0.00 0.00 0.00 100 1016.7
20180123065812 33 24 0.0 0.0 0.00 0.00 0.00 100 1016.8
20180123064812 33 24 0.0 0.0 0.00 0.00 0.00 100 1016.8
20180123063813 33 22 0.0 0.0 0.00 0.00 0.00 100 1017.2
20180123062812 33 21 0.0 0.0 0.00 0.00 0.00 100 1017.4
20180123061812 33 21 0.0 0.0 0.00 0.00 0.00 100 1017.4
20180123060813 33 20 0.0 0.0 0.00 0.00 0.00 100 1017.8
20180123055812 33 13 0.0 0.0 0.00 0.00 0.00 100 1018.2
20180123054812 33 12 0.0 0.0 0.00 0.00 0.00 100 1018.2
20180123053814 33 12 1.0 0.0 0.00 0.00 0.00 100 1018.8
20180123052812 33 11 0.0 0.0 0.00 0.00 0.00 100 1018.9
20180123051812 33 38 0.0 0.0 0.00 0.00 0.00 100 1018.9
20180123050812 33 37 0.0 0.0 0.00 0.00 0.00 100 1019.2
20180123045812 33 38 0.0 0.0 0.00 0.00 0.01 100 1019.0
20180123044813 33 35 0.0 0.0 0.00 0.00 0.01 100 1019.0
20180123043813 34 33 0.0 0.0 0.00 0.00 0.01 100 1018.8
20180123042814 34 31 0.0 0.0 0.00 0.00 0.01 100 1019.3
20180123041812 34 30 0.0 0.0 0.00 0.00 0.01 100 1019.3
20180123040814 34 30 0.0 0.0 0.00 0.00 0.01 100 1019.3
20180123035812 34 29 0.0 0.0 0.00 0.00 0.01 100 1019.5
20180123034813 34 27 0.0 0.0 0.00 0.00 0.01 100 1019.5